{"data":{"norad_id":61242,"epoch":"2026-09-22T23:18:58.509792Z","epoch_age_seconds":81132,"freshness":"FRESH","line1":"1 61242U 24174E   26265.97151053  .00004477  00000+0  16370-3 0  9996","line2":"2 61242  97.4472 276.8856 0011079 244.6846 115.3246 15.28550273110770","mean_motion":15.28550273,"eccentricity":0.0011079,"inclination_deg":97.4472,"raan_deg":276.8856,"arg_perigee_deg":244.6846,"mean_anomaly_deg":115.3246,"bstar":0.0001637,"rev_number":11077,"period_min":94.206911309092,"perigee_km":472.54699563481,"apogee_km":487.74357752542,"semimajor_km":6858.2822865801,"source":"CELESTRAK","updated_at":"2026-09-23T09:00:20.857852Z"}}